This is the latest recevied weather packets stored in our database for station/object WD9U. If no packets are shown the sender has not sent any weather packets the latest 10 day(s).
| Time | Temp. | Humidity | Pressure | Rain* | Wind** | Luminosity | Snow |
|---|---|---|---|---|---|---|---|
| 1777737667 | 12.22° C | 27% | 1016.9 hPa | 0 mm | - | 739 W/m² | - |
| 1777737307 | 12.22° C | 27% | 1017 hPa | 0 mm | - | 728 W/m² | - |
| 1777736947 | 12.22° C | 29% | 1017.2 hPa | 0 mm | - | 716 W/m² | - |
| 1777736719 | 12.22° C | 28% | 1017.1 hPa | 0 mm | - | 706 W/m² | - |
| 1777736587 | 12.22° C | 31% | 1017.2 hPa | 0 mm | - | 702 W/m² | - |
| 1777736227 | 12.22° C | 29% | 1017.2 hPa | 0 mm | - | 692 W/m² | - |
| 1777735877 | 12.78° C | 28% | 1017.2 hPa | 0 mm | - | 682 W/m² | - |
| 1777735517 | 12.78° C | 32% | 1017.3 hPa | 0 mm | - | 668 W/m² | - |
| 1777735157 | 12.78° C | 31% | 1017.4 hPa | 0 mm | - | 655 W/m² | - |
| 1777734797 | 12.22° C | 33% | 1017.4 hPa | 0 mm | - | 644 W/m² | - |
| 1777734437 | 12.22° C | 33% | 1017.5 hPa | 0 mm | - | 632 W/m² | - |
| 1777734321 | 12.22° C | 32% | 1017.6 hPa | 0 mm | - | 629 W/m² | - |
| 1777734077 | 12.22° C | 34% | 1017.6 hPa | 0 mm | - | 618 W/m² | - |
| 1777733717 | 11.67° C | 38% | 1017.7 hPa | 0 mm | - | 608 W/m² | - |
| 1777733357 | 11.11° C | 38% | 1017.7 hPa | 0 mm | - | 594 W/m² | - |
| 1777733119 | 11.11° C | 37% | 1017.7 hPa | 0 mm | - | 580 W/m² | - |
| 1777732997 | 11.11° C | 37% | 1017.8 hPa | 0 mm | - | 578 W/m² | - |
| 1777732637 | 10.56° C | 39% | 1017.8 hPa | 0 mm | - | 564 W/m² | - |
| 1777732277 | 10.56° C | 39% | 1017.9 hPa | 0 mm | - | 548 W/m² | - |
| 1777731917 | 10° C | 40% | 1017.9 hPa | 0 mm | - | 530 W/m² | - |
| 1777731557 | 10° C | 42% | 1018 hPa | 0 mm | - | 515 W/m² | - |
| 1777731197 | 9.44° C | 41% | 1018.1 hPa | 0 mm | - | 500 W/m² | - |
| 1777730836 | 9.44° C | 43% | 1018.1 hPa | 0 mm | - | 486 W/m² | - |
| 1777730719 | 9.44° C | 44% | 1018.1 hPa | 0 mm | - | 482 W/m² | - |
| 1777730477 | 9.44° C | 44% | 1018.1 hPa | 0 mm | - | 470 W/m² | - |
* Rain latest hour (hover to see other rain measurements)
** Current wind speed in m/s (hover to see current wind gust speed)